www.pogodaiklimat.ru

Погода и климат >> Архив погоды >> Россия >> Хабаровский край >> Удинск


ПОГОДА в Удинске

  • Прогноз погоды в Удинске
  • Монитор погоды в Удинске

АРХИВ ПОГОДЫ в Удинске

Время (UTC), дата Ветер
(напр.,м/с)
 
Видим.   Явления Облачность Т
(С)
Тd
(С)
f
(%)
Тe
(С)
Тes
(С)
Комфортность P
(гПа)
Po
(гПа)
Тmin
(С)
Tmax
(С)
R
(мм)
R24
(мм)
S
(см)
18 16.07 Ю 1 50 км 4/0
[Ac lent Ci fib]
+15.2 +14.7 97 +16 +16 1006.9 1005.1
21 16.07 штиль 0 50 км 4/1 600 м
[Sc diur, vesp Ac trans Ci fib]
+20.2 +18.2 88 +23 +26 комфорт 1006.6 1004.8 +14.6
00 17.07 СЗ 2 50 км 4/1 600 м
[Sc diur, vesp Ac trans Ci fib]
+26.3 +19.7 67 +32 +40 очень
душно
1005.8 1004.1
03 17.07 штиль 0 50 км гроза без осадков 5/4 600 м
[Cb calv Ci fib]
+29.3 +19.8 57 +36 +48 очень
душно
1004.4 1002.7
06 17.07 СВ 4 10 км гроза, ливневой дождь 10/8 600 м
[Cb calv Ci fib]
+22.1 +20.0 88 +28 +29 душно 1003.2 1001.4
09 17.07 штиль 0
{12}
50 км {гроза, ливн. осадки} 10/6 600 м
[Cb calv Ac lent Ci ing]
+20.6 +20.0 96 +25 +25 комфорт 1003.9 1002.1 +31.0 29
12 17.07 ЮЗ 1 50 км {гроза, ливн. осадки} 10/8 600 м
[Cb cap Ac trans Ci ing]
+19.0 +18.5 97 +22 +22 комфорт 1003.9 1002.1
15 17.07 ЮЗ 1 50 км 6/0
[Ac lent Ci fib]
+17.0 +16.5 97 +18 +18 1004.2 1002.4
18 17.07 ЮВ 1 500 м туман ?/? +16.5 +16.0 97 +17 +17 1003.9 1002.1
21 17.07 штиль 0 200 м туман ?/? +17.5 +17.0 97 +17 +17 1003.9 1002.1 +15.3
00 18.07 СВ 2 500 м туман 8/6 600 м
[Sc diur, vesp Ci]
+21.1 +20.3 95 +26 +30 душно 1003.2 1001.4
03 18.07 СВ 2 50 км {туман} 4/4 600 м
[Cb calv]
+28.9 +18.8 54 +34 +43 очень
душно
1001.6 999.9
06 18.07 Ю 1 50 км гроза без осадков {туман} 9/8 600 м
[Cb cap Ci ing]
+26.0 +19.4 67 +31 +33 очень
душно
1000.4 998.7
09 18.07 СЗ 1 10 км гроза, ливневой дождь 10/8 600 м
[Cb cap Ac lent Ci ing]
+19.2 +18.0 93 +22 +22 комфорт 1002.2 1000.4 +30.5 6
12 18.07 В 1 20 км гроза без осадков {ливн. осадки} 9/6 600 м
[Cb cap Ac lent Ci fib]
+19.1 +18.5 96 +22 +22 комфорт 1002.4 1000.6
15 18.07 З 1 10 км {гроза} 10/10 600 м
[Sc]
+18.3 +17.9 98 +20 +20 1003.1 1001.3
18 18.07 СЗ 2 500 м туман {гроза} ?/? +18.1 +17.7 98 +19 +19 1003.0 1001.2
21 18.07 штиль 0 500 м туман ?/? +18.6 +18.1 97 +20 +20 1003.8 1002.0 +17.5 6
00 19.07 З 1 10 км {туман} 10/10 600 м
[St]
+20.7 +19.1 91 +26 +26 душно 1004.6 1002.8
03 19.07 СВ 1 50 км 5/4 600 м
[Cb calv Ci ing]
+25.9 +20.3 71 +32 +43 очень
душно
1003.9 1002.2
09 19.07 Ю 1 50 км гроза без осадков 8/6 600 м
[Cb calv Ac cast Ci ing]
+26.9 +19.3 63 +32 +33 очень
душно
1004.5 1002.8 +29.6
12 19.07 ЮЗ 1 50 км {гроза} 4/3 600 м
[Sc Ci ing]
+20.8 +19.6 93 +26 +26 душно 1006.1 1004.4
15 19.07 Ю 1 50 км 8/0
[Ac trans Ci]
+17.7 +17.1 96 +19 +19 1007.7 1005.9
18 19.07 штиль 0 10 км 10/10 600 м
[St]
+17.0 +16.6 97 +17 +17 1009.0 1007.3
21 19.07 СЗ 3 4000 м дымка 10/10 100 м
[St]
+18.2 +17.6 96 +19 +19 1011.0 1009.2 +16.3
00 20.07 З 1 10 км слаб. морось 10/10 600 м
[St]
+17.9 +17.1 95 +19 +19 1012.8 1011.1
03 20.07 СВ 1 10 км {морось} 10/10 600 м
[St]
+20.9 +18.4 86 +26 +26 душно 1013.1 1011.3
06 20.07 В 1 20 км {морось} 10/8 600 м
[Sc Ac As Ci ing]
+22.9 +18.7 77 +29 +30 очень
душно
1012.4 1010.6
09 20.07 В 1 20 км 10/9 600 м
[Sc Ci ing]
+22.3 +19.3 83 +28 +28 душно 1011.9 1010.1 +23.0 0.3
12 20.07 В 3 20 км 10/8 600 м
[Sc Ac As]
+20.0 +17.4 85 +23 +23 комфорт 1012.9 1011.1
15 20.07 В 2 20 км 10/9 600 м
[Sc Ac As]
+18.5 +16.7 89 +20 +20 1011.8 1010.1
18 20.07 ЮВ 2 10 км 10/10 600 м
[St]
+17.9 +16.8 93 +18 +18 1011.0 1009.2
21 20.07 С 1 10 км слаб. дождь 10/10 600 м
[Frnb Ns]
+18.0 +17.4 96 +19 +19 1011.3 1009.5 +17.8 0.1
00 21.07 СЗ 2 4000 м дождь 10/10 600 м
[Frnb Ns]
+15.9 +15.3 96 +16 +16 1012.7 1010.9 +15.8
03 21.07 СЗ 1 4000 м слаб. дождь 10/10 600 м
[Frnb Ns]
+15.3 +14.6 96 +16 +16 1014.5 1012.7
06 21.07 В 3 10 км {дождь, морось} 10/10 600 м
[St]
+15.8 +14.1 90 +15 +15 1014.9 1013.1
09 21.07 В 2 10 км 10/10 600 м
[St]
+14.8 +13.3 91 +14 +14 1015.7 1013.9 +18.1 13
15 21.07 В 2 10 км 10/10 600 м
[Cb cap]
+13.7 +11.9 89 +13 +13 1015.0 1013.2
21 21.07 ЮВ 1 10 км 10/10 600 м
[St]
+13.4 +12.5 94 +13 +13 1012.1 1010.3 +12.9
09 22.07 В 2 10 км 10/10 600 м
[Cb cap]
+17.2 +16.0 93 +18 +18 1004.7 1002.9 +17.6 3
21 22.07 В 1 4000 м дождь 10/10 600 м
[Cb cap]
+14.9 +14.5 97 +15 +15 998.1 996.4 +14.9 3
00 23.07 СЗ 2 4000 м морось {дождь} 10/10 600 м
[St]
+16.3 +15.6 96 +16 +16 997.7 996.0
09 23.07 СЗ 6-10
{10}
20 км 10/8 600 м
[Sc Ci ing]
+15.2 +11.1 77 +14 +14 1003.2 1001.5 +19.6 3

 

Местоположение метеостанции Удинск (Хабаровский край, Россия): широта 52.92 долгота 138.80 высота над уровнем моря 15 м.

В архиве по умолчанию представлена погода в Удинске за последнюю неделю. Архивные данные за месяц целиком и за предыдущие месяцы, начиная с января 2011 года, Вы можете получить, выбрав интересующий диапазон дат из раскрывающегося списка и нажав кнопку "Ввод!".


*Определитесь, кто Вы:
робот инопланетянин человек

Внимание! Время в таблицах - всемирное. Для получения местного времени необходимо прибавить поправку, которая равна 10 ч.

Смотрите также архив погоды в соседних городах и на ближайших метеорологических станциях:

Погода в Богородском (Хабаровский край, Россия) (124 км)
Погода в Николаевск-на-Амуре (Хабаровский край, Россия) (130 км)
Погода в Литке (Хабаровский край, Россия) (152 км)
Погода в Мариинском (Хабаровский край, Россия) (159 км)
Погода в Джаоре (Хабаровский край, Россия) (164 км)
Погода в Им. Полины Осипенко (Хабаровский край, Россия) (165 км)
Погода в Байдукове (Хабаровский край, Россия) (179 км)
Погода в Циммермановка (Хабаровский край, Россия) (179 км)
Погода в Бурукане (Хабаровский край, Россия) (188 км)
Погода в Погибях (Сахалинская область, Россия) (205 км)

Пояснения к столбцам:

Ветер - указаны скорость ветра в м/с - средняя за 10 мин, порывы в срок и между сроками (в фигурных скобках) и направление, откуда дует ветер: С - северный, СВ - северо-восточный, В - восточный, ЮВ - юго-восточный, Ю - южный, ЮЗ - юго-западный, З - западный, СЗ - северо-западный.
Видимость - горизонтальная дальность видимости в метрах или километрах. При видимости от 1 до 10 км при отсутствии осадков обычно наблюдается дымка, при ухудшении видимости до 1 км и менее - туман. В сухую погоду видимость может ухудшаться дымом, пылью или мглою.
Явления - указаны атмосферные явления, наблюдавшиеся в срок или в последний час перед сроком; фигурными скобками обозначены явления, наблюдавшиеся между сроками (за 1-3 часа до срока); квадратными скобками обозначены град или гололедные отложения с указанием их диаметра в мм.
Облачность - указаны через наклонную черту общая и нижняя облачность в баллах и высота нижней границы облаков в метрах; квадратными скобками обозначены формы облаков: Ci - перистые, Cs - перисто-слоистые, Cc - перисто-кучевые, Ac - высококучевые, As - высокослоистые, Sc - слоисто-кучевые, Ns - слоисто-дождевые, Cu - кучевые, Cb - кучево-дождевые. Подробнее классификацию облаков см. в Атласе облаков (PDF).
T - Температура воздуха - температура, измеренная на высоте 2 м над землей.
Td - Температура точки росы - температура, при понижении до которой содержащийся в воздухе водяной пар достигнет насыщения.
f - Относительная влажность воздуха - влажноcть воздуха, измеренная на высоте 2 м над землей.
Te - Эффективная температура - температура, которую ощущает одетый по сезону человек в тени. Характеристика душности погоды. При расчете учитывается влияние влажности воздуха и скорости ветра на теплоощущения человека.
Tes - Эффективная температура на солнце - температура, которую ощущает человек, с поправкой на солнечный нагрев. Характеристика знойности погоды. Зависит от высоты солнца над горизонтом, облачности и скорости ветра. Ночью, в пасмурную погоду, а также при ветре 12 м/с и более поправка равна нулю.
P - Атмосферное давление - приведенное к уровню моря атмосферное давление.
Po - Атмосферное давление - измеренное на уровне метеостанции атмосферное давление.
Tmin - Минимальная температура - минимум температуры воздуха на высоте 2 м над землей.
Tmax - Максимальная температура - максимум температуры воздуха на высоте 2 м над землей.
R - Количество осадков - Количество выпавших осадков за период времени, мм. При наведении курсора мыши на число - период времени, за который выпало указанное количество осадков.
R24 - Количество осадков - Количество выпавших осадков за 24 часа, мм.
S - Снежный покров - Высота снежного покрова, см. При наведении курсора мыши на число - состояние снежного покрова и степень покрытия местности в баллах.